[[{"header":{"parameterUnit":"m.s-1","parameterCategory":1,"la1":30.2991,"la2":30.254,"lo1":-89.0895,"lo2":-89.0444,"dy":0.0017,"dx":0.0017,"nx":28,"ny":28,"refTime":"2025-09-07T03:00:00:Z","depth":0,"parameterNumber":2,"parameterNumberName":"U-component_of_WINDS"},"data":[0,0,0,0,0,0,0,0,0,0,0,0,0,0,0,0,0,0,0,0,0,0,0,0,0,0,0,0,0,0,0,0,0,0,0,0,0,0,0,0,0,0,0,0,0,0,0,0,0,0,0,0,0,0,0,0,0,0,-1.137,-1.137,0,-1.1375,-1.1375,-1.1375,-1.1334,-1.1333,-1.1332,-1.133,-1.1336,-1.1338,-1.1339,0,0,0,0,0,0,0,0,0,0,0,0,0,-1.1326,-1.1327,-1.137,-1.137,-1.1371,-1.1375,-1.1375,-1.1375,-1.1334,-1.1333,-1.1331,-1.133,-1.1336,-1.1337,-1.1339,0,0,0,0,0,0,0,0,0,0,0,0,0,-1.134,-1.1327,-1.137,-1.135,-1.1349,-1.1375,-1.1375,-1.1375,-1.1334,-1.1333,-1.1331,-1.1329,-1.1336,-1.1337,-1.1339,-1.1385,0,0,-1.1345,-1.1346,0,0,0,0,0,0,0,0,-1.1339,-1.1341,-1.1353,-1.1352,-1.135,-1.1352,-1.1362,-1.1379,-1.1335,-1.134,-1.133,-1.1328,-1.1343,-1.1344,-1.1349,-1.1385,-1.1386,-1.1345,-1.1346,-1.1347,-1.1347,0,0,0,0,0,0,0,-1.1338,-1.1341,-1.1372,-1.1354,-1.1352,-1.1341,-1.1341,-1.1365,-1.1351,-1.1339,-1.1336,-1.1337,-1.1342,-1.1347,-1.1349,-1.1386,-1.1345,-1.1347,-1.1348,-1.1348,-1.146,-1.1462,0,0,0,0,0,0,-1.134,-1.134,-1.1372,-1.1372,-1.134,-1.1344,-1.1344,-1.1353,-1.1351,-1.1349,-1.1339,-1.1335,-1.1345,-1.1347,-1.1349,-1.1403,-1.1347,-1.1349,-1.135,-1.1458,-1.146,-1.1462,0,0,0,0,0,0,-1.1339,-1.1343,-1.1372,-1.1356,-1.1358,-1.1346,-1.1357,-1.1354,-1.136,-1.135,-1.1348,-1.1347,-1.1344,-1.1346,-1.1376,-1.1402,-1.1349,-1.1351,-1.1456,-1.1459,-1.1461,-1.1511,0,0,0,0,0,0,-1.1338,-1.1343,-1.136,-1.1356,-1.136,-1.1399,-1.1359,-1.1356,-1.1363,-1.1358,-1.1357,-1.1355,-1.1342,-1.1374,-1.1378,-1.1404,-1.1353,-1.1454,-1.1457,-1.1461,-1.1507,-1.1515,-1.1522,0,0,0,0,0,-1.1336,-1.1374,-1.1361,-1.1365,-1.1381,-1.1401,-1.1403,-1.1387,-1.1365,-1.1382,-1.1376,-1.1355,-1.1399,-1.1377,-1.1382,-1.1409,-1.1452,-1.1456,-1.146,-1.1504,-1.1514,-1.1522,0,0,0,0,0,0,-1.1382,-1.1373,-1.1359,-1.1397,-1.14,-1.1394,-1.1416,-1.1398,-1.1408,-1.1403,-1.1383,-1.1383,-1.1417,-1.1415,-1.1392,-1.1453,-1.1421,-1.1427,-1.1453,-1.1462,-1.147,-1.147,-1.1354,0,0,0,0,0,-1.1396,-1.1413,-1.1405,-1.1439,-1.1441,-1.1428,-1.1436,-1.1424,-1.1426,-1.1428,-1.1424,-1.1427,-1.1442,-1.1452,-1.1464,-1.1506,-1.1506,-1.1527,-1.1534,-1.154,-1.1546,-1.1568,-1.1577,-1.1476,-1.1476,-1.1476,0,0,-1.1427,-1.1424,-1.1436,-1.1448,-1.1449,-1.1467,-1.143,-1.145,-1.1464,-1.1431,-1.1459,-1.1456,-1.1459,-1.1495,-1.1511,-1.1495,-1.1573,-1.1546,-1.1551,-1.1553,-1.1573,-1.1583,-1.1591,-1.1479,-1.1478,-1.1478,0,0,-1.1491,-1.149,-1.1519,-1.152,-1.1522,-1.1513,-1.152,-1.1516,-1.1513,-1.1541,-1.1517,-1.1532,-1.1557,-1.156,-1.1565,-1.1629,-1.1611,-1.1634,-1.1674,-1.1696,-1.1704,-1.1711,-1.1735,-1.1743,-1.1639,-1.1639,-1.1639,0,-1.1528,-1.1554,-1.1536,-1.1558,-1.1564,-1.1534,-1.1563,-1.1565,-1.1572,-1.1577,-1.1558,-1.1589,-1.1589,-1.1625,-1.1641,-1.1646,-1.1653,-1.1635,-1.1704,-1.1711,-1.1717,-1.174,-1.1749,-1.1642,-1.1642,-1.1641,-1.1641,0,-1.1601,-1.1619,-1.1642,-1.1648,-1.1656,-1.1682,-1.1667,-1.1678,-1.1664,-1.1657,-1.1686,-1.1684,-1.1696,-1.1703,-1.169,-1.1738,-1.1728,-1.1708,-1.1676,-1.173,-1.1751,-1.1759,-1.1646,-1.1645,-1.1644,-1.1644,0,0,-1.1695,-1.169,-1.1699,-1.1701,-1.17,-1.1714,-1.1738,-1.1749,-1.1759,-1.1764,-1.1784,-1.1806,-1.1786,-1.1791,-1.1778,-1.1797,-1.1849,-1.1774,-1.1774,-1.1789,-1.1902,-1.1919,-1.1929,-1.1836,-1.1838,-1.1839,-1.1903,0,-1.1759,-1.1799,-1.1783,-1.1825,-1.1842,-1.1813,-1.1834,-1.1836,-1.183,-1.1843,-1.1836,-1.1852,-1.1825,-1.1828,-1.1845,-1.1839,-1.1872,-1.1834,-1.1855,-1.1856,-1.1857,-1.194,-1.1958,-1.2018,-1.191,-1.1912,-1.1913,0,-1.1838,-1.1846,-1.189,-1.1886,-1.1892,-1.1912,-1.192,-1.1933,-1.1935,-1.1929,-1.1935,-1.1917,-1.194,-1.1908,-1.194,-1.1915,-1.1922,-1.192,-1.1922,-1.1925,-1.1889,-1.1946,-1.2037,-1.2046,-1.1925,-1.1924,-1.1923,0,-1.1904,-1.1925,-1.1954,-1.1957,-1.1953,-1.1967,-1.1966,-1.1966,-1.1973,-1.1981,-1.1986,-1.1996,-1.2002,-1.201,-1.1996,-1.1973,-1.203,-1.1996,-1.2027,-1.2027,-1.2041,-1.2041,-1.2136,-1.2044,-1.2044,-1.2044,-1.2044,0,-1.1977,-1.2005,-1.1984,-1.2002,-1.2032,-1.2013,-1.2044,-1.2039,-1.2039,-1.2056,-1.2032,-1.2048,-1.2028,-1.2042,-1.2031,-1.2059,-1.2062,-1.2058,-1.2055,-1.2061,-1.2062,-1.2067,-1.2063,-1.2046,-1.2046,-1.2045,-1.2045,0,-1.2056,-1.2043,-1.2073,-1.2066,-1.2065,-1.2088,-1.2082,-1.2099,-1.209,-1.2112,-1.2116,-1.2103,-1.2119,-1.2105,-1.212,-1.2112,-1.2151,-1.2141,-1.215,-1.2148,-1.2179,-1.2177,-1.2282,-1.2295,-1.2194,-1.2195,-1.2196,0,-1.2105,-1.2126,-1.2121,-1.213,-1.2131,-1.2146,-1.2153,-1.2134,-1.2143,-1.2146,-1.2163,-1.2176,-1.2186,-1.2212,-1.2204,-1.2216,-1.2207,-1.2243,-1.2208,-1.2214,-1.2208,-1.2208,-1.221,-1.225,-1.2251,-1.2252,-1.2253,0,-1.2192,-1.2184,-1.2195,-1.2205,-1.2214,-1.2221,-1.2226,-1.2235,-1.2215,-1.2226,-1.2242,-1.2249,-1.2264,-1.2278,-1.2287,-1.2286,-1.2267,-1.2264,-1.2271,-1.2278,-1.2283,-1.2282,-1.217,-1.2262,-1.2261,-1.226,-1.226,-1.2259,-1.2258,-1.2275,-1.2274,-1.2288,-1.2289,-1.2294,-1.2309,-1.2302,-1.2315,-1.2326,-1.2313,-1.2333,-1.2333,-1.2342,-1.2344,-1.2358,-1.2344,-1.2355,-1.2358,-1.2361,-1.2366,-1.228,-1.236,-1.236,-1.2359,-1.2359,-1.2359,0,-1.2345,-1.2342,-1.2355,-1.2362,-1.2373,-1.2353,-1.2357,-1.2367,-1.2384,-1.2386,-1.2396,-1.2414,-1.2427,-1.242,-1.2431,-1.2444,-1.2436,-1.2448,-1.2447,-1.2448,-1.2378,-1.2371,-1.2455,-1.2455,-1.2455,-1.2455,-1.2455,-1.2455,-1.2391,-1.242,-1.2412,-1.244,-1.2438,-1.2456,-1.246,-1.2465,-1.2466,-1.2487,-1.2497,-1.2492,-1.249,-1.2501,-1.2512,-1.251,-1.2516,-1.2531,-1.2526,-1.2462,-1.2452,-1.2443,-1.2436,-1.2533,-1.2533,-1.2594,-1.2595,-1.2595]},{"header":{"parameterUnit":"m.s-1","parameterCategory":1,"la1":30.2991,"la2":30.254,"lo1":-89.0895,"lo2":-89.0444,"dy":0.0017,"dx":0.0017,"nx":28,"ny":28,"refTime":"2025-09-07T03:00:00:Z","depth":0,"parameterNumber":3,"parameterNumberName":"V-component_of_WINDS"},"data":[0,0,0,0,0,0,0,0,0,0,0,0,0,0,0,0,0,0,0,0,0,0,0,0,0,0,0,0,0,0,0,0,0,0,0,0,0,0,0,0,0,0,0,0,0,0,0,0,0,0,0,0,0,0,0,0,0,0,-6.3536,-6.3536,0,-6.3589,-6.359,-6.359,-6.3535,-6.3533,-6.3531,-6.3529,-6.3578,-6.3581,-6.3584,0,0,0,0,0,0,0,0,0,0,0,0,0,-6.3381,-6.3384,-6.3536,-6.3536,-6.3537,-6.3589,-6.359,-6.3591,-6.3536,-6.3533,-6.3531,-6.3528,-6.3577,-6.3581,-6.3585,0,0,0,0,0,0,0,0,0,0,0,0,0,-6.3443,-6.3385,-6.3536,-6.3516,-6.3515,-6.3589,-6.359,-6.3591,-6.3536,-6.3533,-6.353,-6.3527,-6.3576,-6.358,-6.3585,-6.3679,0,0,-6.36,-6.3602,0,0,0,0,0,0,0,0,-6.3439,-6.3448,-6.3518,-6.3518,-6.3517,-6.3553,-6.3553,-6.362,-6.3537,-6.3528,-6.3529,-6.3526,-6.3572,-6.3577,-6.3593,-6.3681,-6.3683,-6.3601,-6.3604,-6.3606,-6.3607,0,0,0,0,0,0,0,-6.3435,-6.3446,-6.3557,-6.3519,-6.3518,-6.3503,-6.3508,-6.3566,-6.3567,-6.3529,-6.3525,-6.3532,-6.357,-6.3589,-6.3594,-6.3684,-6.36,-6.3605,-6.3608,-6.361,-6.3853,-6.3856,0,0,0,0,0,0,-6.3434,-6.3443,-6.3555,-6.3558,-6.347,-6.3509,-6.3514,-6.3544,-6.3566,-6.3567,-6.3535,-6.3529,-6.3582,-6.3589,-6.3596,-6.3708,-6.3606,-6.361,-6.3613,-6.3849,-6.3853,-6.3857,0,0,0,0,0,0,-6.3431,-6.3444,-6.3553,-6.35,-6.3512,-6.3515,-6.3548,-6.3547,-6.3565,-6.3571,-6.357,-6.3554,-6.358,-6.3589,-6.3659,-6.3708,-6.3612,-6.3617,-6.3845,-6.385,-6.3855,-6.3932,0,0,0,0,0,0,-6.3426,-6.3444,-6.348,-6.3501,-6.3515,-6.3617,-6.3551,-6.355,-6.3575,-6.3568,-6.3589,-6.3589,-6.3578,-6.3652,-6.3664,-6.3713,-6.3621,-6.3841,-6.3847,-6.3854,-6.3925,-6.3939,-6.3951,0,0,0,0,0,-6.3421,-6.3498,-6.3482,-6.3496,-6.3562,-6.362,-6.3628,-6.3616,-6.3579,-6.3615,-6.3619,-6.3588,-6.3702,-6.366,-6.3673,-6.3724,-6.3837,-6.3845,-6.3853,-6.3919,-6.3936,-6.3951,0,0,0,0,0,0,-6.348,-6.35,-6.3483,-6.3569,-6.3594,-6.3611,-6.3656,-6.3635,-6.3668,-6.366,-6.3642,-6.3647,-6.3722,-6.373,-6.3684,-6.3817,-6.3763,-6.3774,-6.3809,-6.3825,-6.3838,-6.3834,-6.3625,0,0,0,0,0,-6.3504,-6.3552,-6.3566,-6.364,-6.3654,-6.3654,-6.3678,-6.3667,-6.3691,-6.37,-6.3709,-6.3732,-6.3772,-6.3799,-6.3837,-6.3926,-6.393,-6.3968,-6.3981,-6.3992,-6.4001,-6.405,-6.4067,-6.3883,-6.3883,-6.3883,0,0,-6.3552,-6.3569,-6.3599,-6.3653,-6.367,-6.3719,-6.3662,-6.3715,-6.3751,-6.3707,-6.3775,-6.3783,-6.3807,-6.3888,-6.3924,-6.3897,-6.4053,-6.4002,-6.4011,-6.4014,-6.406,-6.4077,-6.4092,-6.3888,-6.3887,-6.3887,0,0,-6.3664,-6.3682,-6.3747,-6.3767,-6.3796,-6.3795,-6.3811,-6.3832,-6.3836,-6.3905,-6.3874,-6.3915,-6.3985,-6.4004,-6.4022,-6.4145,-6.4118,-6.4158,-6.4226,-6.4273,-6.4288,-6.43,-6.4344,-6.436,-6.4167,-6.4167,-6.4168,0,-6.3719,-6.3794,-6.3782,-6.3839,-6.3863,-6.383,-6.3894,-6.3913,-6.3952,-6.3969,-6.3939,-6.4028,-6.4041,-6.4126,-6.4157,-6.4173,-6.419,-6.4155,-6.4287,-6.43,-6.4311,-6.4353,-6.4369,-6.4172,-6.4171,-6.4171,-6.4171,0,-6.386,-6.3912,-6.3961,-6.4002,-6.4032,-6.4092,-6.4089,-6.412,-6.4107,-6.411,-6.418,-6.4196,-6.4237,-6.4256,-6.4242,-6.434,-6.4322,-6.429,-6.4235,-6.4334,-6.4372,-6.4388,-6.4179,-6.4177,-6.4176,-6.4174,0,0,-6.4009,-6.4046,-6.4064,-6.4083,-6.4113,-6.4152,-6.4211,-6.4254,-6.4281,-6.4309,-6.4357,-6.4419,-6.439,-6.4412,-6.44,-6.4442,-6.4538,-6.4405,-6.4405,-6.4429,-6.4646,-6.467,-6.4688,-6.4521,-6.4524,-6.4527,-6.4644,0,-6.4122,-6.4227,-6.422,-6.4318,-6.4366,-6.4335,-6.4387,-6.441,-6.4414,-6.4454,-6.4457,-6.4502,-6.4461,-6.4474,-6.4514,-6.4518,-6.4582,-6.451,-6.4565,-6.4567,-6.4559,-6.4709,-6.4733,-6.4843,-6.4659,-6.4662,-6.4664,0,-6.4268,-6.4305,-6.4409,-6.4434,-6.4453,-6.45,-6.4539,-6.4578,-6.4604,-6.4604,-6.463,-6.4612,-6.467,-6.4615,-6.4695,-6.4646,-6.4668,-6.4674,-6.4678,-6.4682,-6.462,-6.4716,-6.4878,-6.4895,-6.4687,-6.4685,-6.4684,0,-6.4366,-6.4441,-6.4514,-6.4531,-6.4562,-6.4595,-6.4609,-6.4632,-6.4659,-6.4692,-6.4709,-6.4749,-6.477,-6.48,-6.4793,-6.4754,-6.4874,-6.4819,-6.4875,-6.4875,-6.49,-6.4899,-6.5068,-6.4916,-6.4916,-6.4916,-6.4915,0,-6.4493,-6.4558,-6.4559,-6.4603,-6.4674,-6.4665,-6.4735,-6.4745,-6.4766,-6.4811,-6.4786,-6.4828,-6.4817,-6.4858,-6.4852,-6.4919,-6.4929,-6.4929,-6.4927,-6.4931,-6.4931,-6.4945,-6.4937,-6.492,-6.4919,-6.4918,-6.4917,0,-6.4614,-6.4618,-6.4694,-6.4719,-6.4726,-6.4778,-6.4797,-6.4838,-6.4842,-6.4899,-6.4911,-6.4916,-6.4963,-6.496,-6.5012,-6.5009,-6.5091,-6.508,-6.5083,-6.5081,-6.5137,-6.5132,-6.532,-6.5344,-6.5177,-6.5179,-6.518,0,-6.4695,-6.4744,-6.4775,-6.4805,-6.4822,-6.4869,-6.4897,-6.489,-6.492,-6.4955,-6.4991,-6.5037,-6.5073,-6.515,-6.5157,-6.5197,-6.5187,-6.525,-6.5192,-6.5195,-6.5187,-6.5184,-6.5189,-6.5261,-6.5263,-6.5264,-6.5266,0,-6.4837,-6.4837,-6.488,-6.4924,-6.4959,-6.4992,-6.5023,-6.5048,-6.5044,-6.5078,-6.5128,-6.5157,-6.5212,-6.5258,-6.5297,-6.5309,-6.5287,-6.5284,-6.5299,-6.5304,-6.5303,-6.5304,-6.5114,-6.5279,-6.5278,-6.5277,-6.5276,-6.5276,-6.494,-6.4983,-6.5012,-6.5061,-6.5084,-6.5114,-6.5154,-6.5164,-6.5207,-6.5253,-6.5246,-6.5301,-6.5327,-6.5377,-6.5394,-6.5436,-6.5413,-6.5435,-6.544,-6.5445,-6.5452,-6.5298,-6.5443,-6.5442,-6.5442,-6.5442,-6.5441,0,-6.5081,-6.5099,-6.5144,-6.519,-6.5228,-6.5207,-6.524,-6.5273,-6.5323,-6.535,-6.5387,-6.5445,-6.5489,-6.5501,-6.5543,-6.5575,-6.5566,-6.5586,-6.5583,-6.5587,-6.547,-6.5453,-6.5593,-6.5593,-6.5593,-6.5593,-6.5593,-6.5593,-6.5159,-6.5231,-6.5235,-6.5318,-6.5335,-6.5392,-6.5413,-6.544,-6.5461,-6.5528,-6.5566,-6.5574,-6.5594,-6.5639,-6.5678,-6.568,-6.5697,-6.5722,-6.572,-6.561,-6.5595,-6.558,-6.5564,-6.5725,-6.5726,-6.5833,-6.5834,-6.5834]}]]